User: anonymous   Login
Location: Kailua
(21.4020°N, 157.7390°W)
Time: 20:17:48
(UTC-10:00)
Language:

Cosmos 2297 Rocket - Orbit

View from above orbital plane
View from above orbital plane
View from above satellite
View from above satellite

Ground track
Ground track

The orbit data is extracted from the following two-line orbital elements,

1 23405U 94077B   16206.87425200 -.00000223  00000-0 -90328-4 0  9999
2 23405  70.9823 183.5656 0000322 150.7609 209.3531 14.15186589119208
Epoch (UTC): 24 July 2016 20:58:55
Eccentricity: 0.0000322
inclination: 70.9823°
perigee height: 841 km
apogee height: 842 km
right ascension of ascending node: 183.5656°
argument of perigee: 150.7609°
revolutions per day: 14.15186589
mean anomaly at epoch: 209.3531°
orbit number at epoch: 11920

The dashed part of the orbit path shows where the satellite is in the earth's shadow,  

DLR